{"data":{"norad_id":47161,"intl_designator":"2020-088AR","name":"STARLINK-1876","alt_names":[],"object_type":"PAYLOAD","status":"ACTIVE","operator":null,"country":"US","launch_date":"2020-11-25","launch_site_code":"AFETR","launch_vehicle":null,"mission":null,"orbit_class":"UNKNOWN","rcs_meters":null,"size_class":null,"mass_kg":null,"dimensions":null,"purposes":["comms"],"wikipedia_slug":null,"has_3d_model":false,"image_url":null,"decayed_at":null,"tle_current":{"epoch":"2026-05-25T04:05:56.273280Z","epoch_age_seconds":53516,"freshness":"FRESH","line1":"1 47161U 20088AR  26145.17079020  .00177791  00000+0  83851-3 0  9990","line2":"2 47161  53.0435 252.3289 0006952 307.8586  52.1806 15.82029972304296","mean_motion":15.82029972,"eccentricity":0.0006952,"inclination_deg":53.0435,"raan_deg":252.3289,"arg_perigee_deg":307.8586,"mean_anomaly_deg":52.1806,"bstar":0.00083851,"rev_number":30429,"period_min":91.022295752055,"perigee_km":320.04088104756,"apogee_km":329.36050657704,"semimajor_km":6702.8376938123,"source":"CELESTRAK","updated_at":"2026-05-25T13:38:16.522531Z"}}}